EHI
3 3 4 4 4 4 5 4 2 2 1 1 0 0 1 3 4 4 5 6 4 2 1 0 1 2 2 1 2 4 4 2 2 3 3 3 3 2 1 0 0 0 0
3 3 3 4 4 5 7 6 4 3 3 2 1 1 3 5 5 4 4 5 5 3 2 1 1 2 2 1 2 4 5 5 4 4 5 4 3 2 1 0 0 0 0
3 3 3 4 6 8 10 9 6 5 6 6 5 5 7 8 7 5 5 5 5 4 3 2 2 3 3 3 3 5 7 8 8 8 7 6 5 4 2 0 0 0 0
3 3 4 6 8 10 10 8 7 6 8 9 8 7 8 8 7 7 6 5 4 2 3 5 6 7 7 5 4 6 9 12 13 12 10 9 8 6 4 2 1 1 0
3 4 5 6 7 8 8 6 6 8 8 8 7 6 6 6 6 6 5 4 3 2 2 5 9 10 8 6 6 8 11 14 16 16 13 12 11 9 7 5 4 2 1
3 3 4 4 4 5 5 4 5 8 8 6 5 4 4 4 4 5 4 4 4 4 3 5 8 9 8 7 7 8 10 12 15 16 16 14 13 10 8 7 6 3 2
3 3 4 4 4 5 6 6 7 8 9 8 7 6 6 5 5 6 6 5 5 6 6 7 7 7 7 7 7 7 7 9 11 14 15 14 12 10 8 7 5 3 2
3 4 5 5 5 7 10 11 11 11 11 10 9 8 8 8 7 7 7 7 6 6 7 7 8 9 8 7 8 8 9 11 12 12 13 13 11 9 7 6 4 2 2
3 4 6 7 7 9 11 13 14 14 12 11 11 11 10 9 8 8 8 7 7 6 6 6 7 9 10 11 11 10 10 11 11 11 12 12 10 8 7 6 5 3 3
4 5 7 8 8 9 10 10 12 13 13 13 13 13 12 11 9 8 8 7 7 7 6 6 6 8 10 12 13 10 7 6 5 6 7 9 9 8 6 5 5 4 4
4 5 7 7 8 8 8 8 9 10 12 13 14 14 13 13 11 8 7 7 6 6 7 7 7 7 8 10 11 9 5 2 1 1 3 4 5 5 4 4 5 5 6
5 5 5 6 6 6 6 7 7 8 11 14 17 17 16 15 13 10 8 6 4 5 7 8 8 7 7 8 9 7 3 1 0 0 1 1 2 2 2 3 4 6 6
4 4 4 5 4 4 4 6 7 7 10 15 18 19 19 18 16 13 10 6 3 3 6 7 8 8 8 8 7 4 2 1 0 0 0 0 0 0 1 2 3 5 6
4 4 5 6 6 5 6 7 7 6 7 11 14 16 19 19 17 14 10 7 4 3 4 5 6 8 8 8 7 5 4 2 0 0 0 0 0 0 0 1 1 3 3
5 5 6 7 8 7 7 8 7 6 6 8 9 11 13 15 16 14 11 9 7 4 3 3 4 5 6 7 7 7 7 4 1 0 0 0 0 0 0 0 0 1 1
8 8 7 8 8 8 7 7 6 6 6 8 9 9 10 12 13 14 13 12 9 6 3 3 3 4 6 8 8 9 8 7 5 2 0 0 0 0 0 0 0 0 0
8 7 7 7 8 8 8 8 8 8 8 9 11 11 12 13 14 15 16 15 13 9 5 3 3 5 9 11 10 10 10 11 10 5 1 0 0 0 0 0 0 0 0
5 5 6 7 9 9 10 11 11 11 11 11 11 12 14 14 15 16 16 17 15 11 7 4 3 5 9 12 11 11 12 12 11 7 3 1 0 0 0 0 0 0 0
6 7 7 8 9 11 10 10 11 13 14 14 13 13 14 15 15 15 15 15 13 11 9 6 6 6 8 11 11 11 11 11 10 8 5 2 0 0 0 0 0 0 0
9 10 10 8 8 9 8 8 9 11 14 16 15 15 13 13 12 13 14 13 12 11 10 9 8 8 10 12 11 10 10 10 10 9 8 5 2 1 1 0 0 0 0
12 11 10 9 8 7 6 7 8 9 12 16 17 16 13 11 9 10 11 13 12 11 10 10 9 10 12 13 12 10 10 10 10 10 9 8 5 4 3 1 0 0 0
12 12 11 11 11 8 5 5 6 8 11 16 19 18 15 13 10 9 10 10 9 9 9 9 9 11 13 14 13 11 10 10 10 10 10 9 7 6 5 3 1 0 0
15 15 15 15 14 10 6 4 4 7 12 16 19 20 18 15 14 13 10 8 8 9 9 10 11 12 14 15 14 12 11 11 11 12 12 10 8 8 8 5 1 0 0
18 18 18 18 17 13 8 4 4 8 14 17 19 21 20 18 16 15 13 11 11 11 10 10 11 11 11 11 12 12 13 13 13 13 13 10 9 9 8 5 2 0 0
20 19 18 18 18 16 10 5 4 9 16 19 19 19 19 17 15 13 13 14 15 14 10 9 8 7 6 5 6 10 13 13 13 14 13 11 10 9 8 5 2 0 0
20 18 16 16 18 18 13 5 4 11 18 20 19 18 16 15 13 12 13 16 17 15 10 7 6 4 3 2 4 8 12 13 13 13 12 12 11 9 7 5 2 0 0
Wind_Speed
1 1 1 0 1 1 2 2 1 2 2 2 3 3 3 3 3 3 3 8 7 7 7 7 7 7 7 7 7 7 7 8 8 8 8 9 8 8 8 8 7 7 7
1 1 1 0 1 1 1 1 1 2 2 2 2 3 3 3 3 3 3 6 8 8 7 7 6 6 6 7 7 7 7 8 8 8 8 8 8 8 8 8 8 8 7
1 0 1 1 1 1 1 1 1 1 2 3 3 3 2 2 3 3 3 3 5 8 9 8 7 7 7 7 8 8 8 8 8 9 9 8 8 8 8 8 8 7 7
1 0 1 1 1 1 1 1 1 1 1 1 2 2 2 2 3 4 4 4 3 3 8 9 8 8 8 8 8 9 9 9 9 9 10 9 9 9 8 8 8 7 7
1 0 1 1 1 1 1 1 1 0 1 1 2 2 2 2 2 3 4 4 4 4 4 7 10 9 9 8 8 8 9 9 9 10 10 10 10 9 9 8 8 7 7
1 1 1 1 0 1 1 1 1 0 1 1 1 1 1 2 2 2 3 3 4 5 5 4 6 8 10 9 8 9 9 10 10 10 11 11 10 10 9 9 8 8 7
1 0 1 1 0 1 1 1 0 1 1 1 1 1 1 2 2 2 2 2 3 4 4 4 4 4 5 10 10 8 8 9 9 10 10 10 9 9 10 9 9 9 8
1 1 0 1 1 1 1 0 1 2 1 1 2 2 1 2 2 2 2 3 2 3 4 5 4 4 4 3 5 8 7 7 7 8 8 9 9 8 9 9 10 9 9
1 1 1 1 0 1 0 0 1 2 1 1 2 2 2 1 1 1 2 2 2 2 3 2 4 4 4 3 3 6 6 5 6 7 7 8 8 8 8 9 9 9 9
0 0 1 1 1 1 0 2 1 2 2 2 1 1 2 2 3 1 2 2 2 2 2 3 3 4 4 3 2 3 4 5 6 7 7 8 9 9 9 9 10 9 9
0 1 0 1 1 1 1 2 2 2 2 2 2 1 1 2 3 3 2 2 2 2 2 3 3 3 3 3 4 4 5 5 5 6 7 9 9 10 10 10 10 10 10
0 0 1 1 1 1 1 2 2 3 3 3 3 2 2 2 2 2 3 3 3 2 2 2 3 3 3 3 4 4 4 5 6 6 7 7 9 10 10 11 11 11 10
0 0 0 1 1 2 2 3 3 3 4 4 4 3 3 3 3 3 3 4 4 3 3 3 3 3 3 3 2 5 6 6 6 7 8 8 8 9 9 10 10 10 10
1 1 0 1 2 3 3 3 3 3 3 4 4 4 3 3 3 3 3 3 4 4 3 3 2 3 3 3 1 5 5 7 7 7 8 8 8 7 8 8 9 9 9
1 1 1 2 2 2 3 3 3 3 3 4 4 4 4 3 4 4 4 4 5 5 4 3 3 3 3 3 3 4 5 6 7 7 8 8 8 7 7 8 8 8 8
1 2 2 2 2 3 3 4 4 3 4 4 3 4 4 4 3 4 4 4 5 5 5 3 3 3 2 4 4 5 5 6 9 8 8 8 8 8 8 8 8 8 8
2 3 3 3 3 3 3 3 4 4 5 4 4 4 4 5 4 4 4 4 5 5 6 5 4 2 3 5 4 5 6 6 5 10 9 8 8 8 8 9 9 9 9
3 3 3 3 4 3 3 4 5 4 4 5 5 5 6 5 5 5 5 5 5 5 6 7 5 4 4 4 4 6 5 5 5 7 10 9 8 8 9 9 9 9 9
3 3 3 4 4 4 4 4 4 4 5 5 5 6 6 6 6 5 6 6 5 5 5 6 6 4 4 3 4 5 6 4 6 5 9 10 10 9 9 10 10 10 9
4 4 4 4 4 4 4 4 4 4 5 5 5 6 6 6 6 6 6 6 6 6 6 6 6 5 4 3 4 5 5 4 5 5 4 5 8 11 11 11 11 10 10
4 3 4 4 5 4 3 4 5 5 5 6 6 6 5 5 5 6 6 6 6 6 6 6 6 5 4 3 4 4 5 4 5 5 4 4 5 6 7 10 11 10 10
4 4 5 5 5 3 1 3 6 5 5 6 5 6 6 6 6 8 8 8 8 7 7 6 6 6 5 5 4 5 5 5 5 3 4 5 4 5 5 5 7 10 11
5 5 5 5 5 3 2 4 6 7 6 5 6 6 6 5 5 7 7 9 9 9 9 8 8 7 7 5 5 7 6 6 6 4 4 5 4 5 4 3 7 9 10
4 5 5 5 5 4 3 5 6 7 6 6 6 6 7 6 5 6 8 7 7 7 8 8 8 8 7 5 6 7 7 7 7 5 5 5 4 4 4 3 6 8 9
4 5 5 5 5 5 3 4 6 6 5 7 7 6 7 6 4 5 8 8 7 6 6 7 8 7 7 6 6 6 6 6 6 5 4 5 5 4 4 4 4 8 9
5 5 4 4 5 5 3 4 5 6 6 6 6 6 5 5 4 5 7 7 7 7 6 5 5 6 7 7 9 8 7 6 6 5 4 4 5 4 4 4 3 4 6
Wind_Direction
107 102 80 103 137 127 146 160 150 149 167 175 192 185 193 188 194 202 153 166 181 196 204 206 205 207 207 209 210 210 209 210 212 212 214 218 219 223 222 222 222 220 218
58 73 114 114 98 98 89 158 148 175 180 165 186 192 205 194 195 208 194 169 182 195 203 207 211 210 209 211 216 215 214 212 212 211 211 212 213 214 213 213 215 216 218
75 79 83 121 84 98 128 157 150 186 179 176 186 195 200 208 205 206 213 206 187 189 196 202 206 210 215 218 220 219 218 216 213 210 206 206 208 209 209 211 213 216 219
60 5 79 90 104 154 142 144 190 188 157 193 193 209 202 195 217 209 204 206 211 199 187 191 202 213 219 221 223 224 223 219 215 210 205 203 205 207 208 210 212 215 218
65 49 46 66 181 141 140 187 115 203 166 207 220 203 216 207 217 215 211 210 207 214 211 183 198 212 220 224 225 227 227 221 213 208 207 204 205 205 204 205 210 217 213
89 8 122 113 176 107 114 92 81 77 261 238 264 257 235 226 217 215 224 215 209 213 219 216 206 202 210 220 225 227 230 221 214 210 207 207 206 205 206 207 209 214 214
107 47 31 110 170 106 76 113 204 200 234 259 274 280 232 206 189 212 217 229 219 219 223 226 233 225 201 205 218 227 230 223 218 213 208 205 204 206 209 210 211 214 216
99 170 95 210 157 128 156 235 274 287 279 277 286 278 247 188 185 186 193 204 225 224 223 221 219 226 245 220 177 203 216 221 216 209 207 204 206 208 210 211 215 216 215
85 356 330 270 253 265 91 309 276 276 278 280 292 293 298 342 340 176 195 214 230 247 243 231 223 223 232 232 207 178 190 204 209 212 213 206 207 207 211 215 217 217 217
80 309 304 274 246 261 262 263 283 274 269 270 258 263 290 313 293 287 209 184 207 234 255 255 243 229 228 226 198 160 177 209 215 217 213 212 212 210 210 215 217 217 217
302 280 261 283 262 259 265 286 295 280 270 281 289 286 274 235 246 273 292 293 264 251 253 251 251 239 229 228 227 178 176 206 212 217 218 217 216 218 217 217 218 218 218
160 227 229 271 265 282 277 269 274 268 284 291 286 277 278 274 270 268 275 274 279 275 257 255 250 242 240 237 225 138 192 208 211 218 222 222 222 221 219 219 220 221 220
223 50 317 272 272 272 266 265 261 275 275 272 268 274 279 275 275 273 269 278 283 274 250 238 230 240 242 243 204 163 209 206 214 221 223 223 224 223 223 222 221 223 223
320 348 266 261 260 263 260 255 262 263 263 265 269 277 273 270 272 269 265 276 278 273 253 253 233 224 244 251 170 201 219 193 208 218 221 224 222 218 220 220 223 223 221
256 242 246 245 253 263 271 267 262 271 272 266 265 260 264 267 265 266 261 258 269 279 278 253 242 222 236 249 197 239 246 187 200 215 218 219 215 212 214 216 217 216 213
269 257 262 263 263 266 268 267 263 263 267 266 267 275 272 271 265 260 261 262 262 271 280 279 266 265 257 264 218 244 247 190 203 205 207 213 215 214 214 212 212 214 210
242 250 261 272 275 274 274 270 270 271 269 271 271 266 266 274 273 272 265 261 261 263 268 276 277 272 250 258 257 254 247 237 217 193 199 209 216 220 221 218 214 213 210
241 244 257 264 269 272 271 269 268 262 263 267 270 272 272 268 266 269 272 267 267 266 264 270 272 265 255 245 250 257 253 246 249 184 191 205 214 219 221 220 217 213 211
247 252 255 262 270 273 269 266 267 266 266 267 268 271 274 276 272 272 269 271 269 264 263 265 268 266 265 253 251 252 254 250 253 208 192 201 209 216 219 220 215 211 210
245 251 256 262 266 269 270 273 270 266 265 267 268 268 270 272 273 273 264 263 266 268 262 261 263 262 254 250 248 255 258 246 252 252 228 212 203 208 215 216 212 209 206
245 245 251 255 259 260 273 285 277 267 267 267 268 269 264 266 273 273 277 275 268 264 265 263 263 264 261 260 260 262 264 265 257 250 243 232 216 219 210 209 209 207 206
250 250 251 256 262 271 334 294 284 277 275 274 272 272 266 253 256 244 249 259 263 262 269 270 269 266 263 260 266 264 265 267 270 249 248 252 241 238 226 218 189 192 200
245 248 253 257 261 264 251 261 271 274 274 275 273 270 274 274 265 270 250 239 244 242 247 259 268 271 271 265 265 264 257 262 269 267 252 259 250 245 239 205 173 188 197
248 252 254 256 260 256 234 250 267 260 269 270 267 267 269 275 275 279 276 269 264 252 242 243 254 262 268 274 264 264 264 259 259 252 235 253 251 250 248 222 176 188 197
247 252 249 253 258 259 233 247 266 269 264 266 268 265 265 269 281 279 269 269 271 268 246 239 243 249 254 254 255 259 258 256 258 254 231 249 260 258 253 234 190 185 195
250 255 253 257 263 273 249 235 250 270 273 274 266 259 240 257 272 268 269 271 271 275 276 267 245 237 241 240 230 238 249 255 261 262 230 234 254 258 258 242 220 206 205